Hourly Data Report for November 27, 2017

All times are specified in Local Standard Time (LST). Add 1 hour to adjust for Daylight Saving Time where and when it is observed.

BATHURST A
NEW BRUNSWICK

47°37'47.000" N
65°44'20.000" W
58.80 m
8100505
71574
ZBF

Download Data

Hourly Data (November 2017)
Hourly Data Report for November 27, 2017
Temp Definition
°C
Dew Point Temp Definition
°C
Rel Hum Definition
%
Wind Dir Definition
10's deg

Wind Spd Definition
km/h
Visibility Definition
km
Stn Press Definition
kPa
Hmdx Definition


Wind Chill Definition


Weather Definition


TIME
00:00 Legend Double Dagger -5.0 -9.9 69 28 23 24.1 99.31   -12 Snow Showers
01:00 Legend Double Dagger -5.3 -10.8 66 29 24 24.1 99.32   -13 Snow
02:00 Legend Double Dagger -5.6 -10.4 69 28 13 24.1 99.39   -11 Snow,Blowing Snow
03:00 Legend Double Dagger -5.9 -11.7 64 29 17 24.1 99.50   -12 Snow,Blowing Snow
04:00 Legend Double Dagger -6.2 -11.4 67 29 14 24.1 99.50   -12 Snow
05:00 Legend Double Dagger -6.1 -11.6 65 30 14 24.1 99.57   -12 Snow
06:00 Legend Double Dagger -6.1 -11.6 65 28 18 24.1 99.60   -13 Snow
07:00 Legend Double Dagger -6.1 -11.6 65 29 17 24.1 99.63   -12 Snow
08:00 Legend Double Dagger -6.4 -10.4 73 28 16 6.4 99.66   -13 Snow
09:00 Legend Double Dagger -6.4 -8.6 84 25 12 6.4 99.69   -12 Snow
10:00 Legend Double Dagger -5.1 -9.6 71 26 18 16.1 99.71   -11 Snow
11:00 Legend Double Dagger -5.0 -12.2 57 31 25 14.5 99.75   -12 Snow,Blowing Snow
12:00 Legend Double Dagger -4.5 -11.7 58 28 18 19.3 99.74   -11 Snow,Blowing Snow
13:00 Legend Double Dagger -5.1 -10.9 64 31 13 19.3 99.80   -10 Snow
14:00 Legend Double Dagger -5.0 -12.6 55 29 28 19.3 99.88   -13 Snow
15:00 Legend Double Dagger -5.8 -13.3 56 31 26 22.5 100.01   -14 LegendNANA
16:00 Legend Double Dagger -6.7 -13.5 59 29 18 24.1 100.18   -13 LegendNANA
17:00 Legend Double Dagger -7.7 -13.9 61 30 13 24.1 100.31   -13 Cloudy
18:00 Legend Double Dagger -8.0 -13.8 63 30 15 24.1 100.46   -14 LegendNANA
19:00 Legend Double Dagger -7.9 -13.8 63 29 18 24.1 100.57   -15 LegendNANA
20:00 Legend Double Dagger -7.6 -13.2 65 29 22 24.1 100.65   -15 Mostly Cloudy
21:00 Legend Double Dagger -7.1 -12.6 65 30 16 24.1 100.76   -13 LegendNANA
22:00 Legend Double Dagger -7.2 -12.3 67 29 13 24.1 100.87   -13 LegendNANA
23:00 Legend Double Dagger -7.5 -12.3 69 28 13 24.1 100.96   -13 Clear

Notes on Data Quality.

Legend

  • E = Estimated
  • M = Missing
  • NA = Not Available
  • ‡ = Partner data that is not subject to review by the National Climate Archives
Date modified: